Location: Herksen
(52.4316°N, 6.1319°E)
Time: 20:28:23
(UTC+00:00)

Cosmos 1975 - Pass Details

Date: 15 May 2026
Orbit: 471 x 485 km, 82.5° (Epoch: 6 June)

Event Time Altitude Azimuth Distance (km) Brightness Sun altitude
Rises 21:52:09 0° 356° (N) 2,576 7.6 -15.3°
Reaches altitude 10° 21:54:28 10° 8° (N) 1,689 6.2 -15.5°
Maximum altitude 21:57:46 30° 71° (ENE) 902 3.9 -15.7°
Enters shadow 21:59:12 23° 111° (ESE) 1,092 3.9 -15.7°
